Location: Catacaguana
(10.4120°N, 66.7591°W)
Time: 04:16:24
(UTC+00:00)

CZ-2C R/B - Pass Details

Date: 27 May 2022
Orbit: 667 x 784 km, 98.3° (Epoch: 24 June)

Event Time Altitude Azimuth Distance (km) Brightness Sun altitude
Rises 08:30:39 0° 348° (NNW) 3,182 5.9 -21.7°
Reaches altitude 10° 08:33:28 10° 333° (NNW) 2,238 4.9 -21.1°
Enters shadow 08:35:54 19° 304° (NW) 1,692 4.0 -20.6°
